FW8536 Weather Reports


Display with metric or nautical units.
time (UTC)temp
F
wind
direction
speed
MPH
gust
MPH
rain 1hr
in
rain 24hr
in
rain mn
in
humidity
%
barometer
mb
20260504184030 48 360 23.0 35.0 0.00 0.00 0.00 45 997.3
20260504183533 48 360 23.0 35.0 0.00 0.00 0.00 45 997.4
20260504183030 48 360 24.0 35.0 0.00 0.00 0.00 45 997.3
20260504182528 48 360 24.0 42.0 0.00 0.00 0.00 45 997.2
20260504182027 49 360 28.0 42.0 0.00 0.00 0.00 45 997.2
20260504181527 49 360 25.0 34.0 0.00 0.00 0.00 46 997.2
20260504181027 48 360 20.0 36.0 0.00 0.00 0.00 47 997.1
20260504180528 48 360 22.0 34.0 0.00 0.00 0.00 47 997.1
20260504180033 48 360 23.0 35.0 0.00 0.00 0.00 47 997.1
20260504175527 47 360 27.0 38.0 0.00 0.00 0.00 46 997.1
20260504175026 47 360 27.0 38.0 0.00 0.00 0.00 47 997.1
20260504174527 47 360 27.0 37.0 0.00 0.00 0.00 47 997.1
20260504174125 48 360 27.0 35.0 0.00 0.00 0.00 46 997.0
20260504173525 48 360 27.0 35.0 0.00 0.00 0.00 45 996.8
20260504173024 48 360 27.0 36.0 0.00 0.00 0.00 47 997.0
20260504172524 48 360 23.0 36.0 0.00 0.00 0.00 48 997.0
20260504172025 48 360 25.0 34.0 0.00 0.00 0.00 48 997.0
20260504171526 47 360 28.0 34.0 0.00 0.00 0.00 46 997.0
20260504171024 47 360 22.0 38.0 0.00 0.00 0.00 49 996.9
20260504170524 48 360 30.0 38.0 0.00 0.00 0.00 47 996.8
20260504151018 47 360 24.0 32.0 0.00 0.00 0.00 54 996.4
20260504150519 46 360 24.0 32.0 0.00 0.00 0.00 54 996.4
20260504141018 44 360 12.0 19.0 0.00 0.00 0.00 59 996.5
20260504140518 44 360 13.0 19.0 0.00 0.00 0.00 59 996.4
20260504130515 43 360 11.0 15.0 0.00 0.00 0.00 61 996.2
20260504110557 43 360 9.0 16.0 0.00 0.00 0.00 55 994.7
20260504100549 45 360 10.0 15.0 0.00 0.00 0.00 50 994.1
20260504081531 49 360 14.0 20.0 0.00 0.00 0.00 56 993.2
20260504081033 49 360 11.0 16.0 0.00 0.00 0.00 58 993.0
20260504080530 49 360 11.0 23.0 0.00 0.00 0.00 59 993.0
20260504050506 55 355 10.0 13.0 0.00 0.00 0.00 45 990.3
20260504050004 56 5 9.0 14.0 0.00 0.00 0.00 44 990.2
20260504045504 56 360 10.0 15.0 0.00 0.00 0.00 44 990.5
20260504045003 56 360 10.0 15.0 0.00 0.00 0.00 44 990.5
20260504044504 56 355 10.0 14.0 0.00 0.00 0.00 44 990.3
20260504044003 56 344 7.0 9.0 0.00 0.00 0.00 43 990.3
20260504043001 57 344 6.0 10.0 0.00 0.00 0.00 42 990.1
20260504042559 57 342 6.0 11.0 0.00 0.00 0.00 42 990.0
20260504042057 58 360 7.0 13.0 0.00 0.00 0.00 41 990.0
20260504041556 58 347 9.0 15.0 0.00 0.00 0.00 40 989.9
20260504041055 59 355 10.0 22.0 0.00 0.00 0.00 39 989.8
20260504040554 60 355 14.0 23.0 0.00 0.00 0.00 39 989.8
20260504035552 60 355 15.0 23.0 0.00 0.00 0.00 38 989.4
20260504035051 61 355 16.0 25.0 0.00 0.00 0.00 38 989.4
20260504034551 62 11 19.0 32.0 0.00 0.00 0.00 37 989.2
20260504034047 63 360 22.0 35.0 0.00 0.00 0.00 36 989.2
20260504033047 64 360 17.0 29.0 0.00 0.00 0.00 36 988.4
20260504032545 63 360 13.0 18.0 0.00 0.00 0.00 37 988.0
20260504032045 63 360 12.0 16.0 0.00 0.00 0.00 37 988.0
20260504031603 63 360 13.0 18.0 0.00 0.00 0.00 37 987.9
20260504031043 63 360 13.0 19.0 0.00 0.00 0.00 37 987.9
20260504030543 64 360 13.0 19.0 0.00 0.00 0.00 37 988.0
20260504030043 64 360 13.0 18.0 0.00 0.00 0.00 37 988.0
20260504025540 64 284 12.0 16.0 0.00 0.00 0.00 37 987.9
20260504025039 64 360 11.0 16.0 0.00 0.00 0.00 36 987.8
20260504024542 65 288 11.0 15.0 0.00 0.00 0.00 36 987.7
20260504024037 66 265 13.0 18.0 0.00 0.00 0.00 35 987.7
20260504023036 66 279 13.0 20.0 0.00 0.00 0.00 34 987.8
20260504022538 67 287 14.0 22.0 0.00 0.00 0.00 33 987.6
20260504022034 67 292 15.0 22.0 0.00 0.00 0.00 32 987.7
20260504021533 68 292 14.0 23.0 0.00 0.00 0.00 30 987.7
20260504021031 68 281 15.0 22.0 0.00 0.00 0.00 29 987.7
20260504020530 69 265 14.0 23.0 0.00 0.00 0.00 28 987.6
20260504020030 70 292 16.0 29.0 0.00 0.00 0.00 27 987.5
20260504015528 70 360 22.0 29.0 0.00 0.00 0.00 26 987.5
20260504015028 70 267 16.0 26.0 0.00 0.00 0.00 26 987.4
20260504014526 71 253 19.0 26.0 0.00 0.00 0.00 25 987.3
20260504014026 71 260 17.0 26.0 0.00 0.00 0.00 25 987.3
20260504013026 71 254 18.0 30.0 0.00 0.00 0.00 24 987.4
20260504012524 71 247 16.0 24.0 0.00 0.00 0.00 24 987.5
20260504012023 72 252 17.0 28.0 0.00 0.00 0.00 24 987.6
20260504011523 72 260 18.0 28.0 0.00 0.00 0.00 23 987.7
20260504011021 72 257 21.0 28.0 0.00 0.00 0.00 23 987.7
20260504010523 72 256 21.0 28.0 0.00 0.00 0.00 23 987.8
20260504010021 72 265 20.0 29.0 0.00 0.00 0.00 23 987.8
20260504005520 73 256 20.0 29.0 0.00 0.00 0.00 23 987.8
20260504005020 73 245 22.0 34.0 0.00 0.00 0.00 24 987.8
20260504004522 73 360 23.0 34.0 0.00 0.00 0.00 25 987.9
20260504004019 73 246 20.0 29.0 0.00 0.00 0.00 26 988.0
20260504003018 73 252 22.0 30.0 0.00 0.00 0.00 26 987.9
20260504002517 74 249 21.0 30.0 0.00 0.00 0.00 25 988.0
20260504002016 74 238 19.0 29.0 0.00 0.00 0.00 25 988.2
20260504001516 74 238 20.0 32.0 0.00 0.00 0.00 25 988.3
20260504001017 74 240 24.0 32.0 0.00 0.00 0.00 25 988.3
20260504000515 74 252 22.0 35.0 0.00 0.00 0.00 25 988.5
20260504000015 74 260 26.0 35.0 0.00 0.00 0.00 24 988.4
20260503235513 74 267 26.0 35.0 0.00 0.00 0.00 24 988.7
20260503235013 74 266 24.0 38.0 0.00 0.00 0.00 25 988.7
20260503234513 74 247 29.0 38.0 0.00 0.00 0.00 25 988.8
20260503234012 74 237 22.0 31.0 0.00 0.00 0.00 25 988.7
20260503233012 74 261 21.0 34.0 0.00 0.00 0.00 24 989.1
20260503232511 75 246 26.0 31.0 0.00 0.00 0.00 23 989.1
20260503232011 74 240 19.0 35.0 0.00 0.00 0.00 24 989.2
20260503231516 74 246 25.0 35.0 0.00 0.00 0.00 23 989.3
20260503231010 75 244 23.0 32.0 0.00 0.00 0.00 23 989.5
20260503230509 75 267 21.0 33.0 0.00 0.00 0.00 22 989.5
20260503230008 75 259 21.0 33.0 0.00 0.00 0.00 21 989.6
20260503225506 75 269 25.0 33.0 0.00 0.00 0.00 20 989.8
20260503225009 75 243 22.0 30.0 0.00 0.00 0.00 20 989.7
20260503224505 74 287 20.0 30.0 0.00 0.00 0.00 20 989.9
20260503224005 74 288 20.0 31.0 0.00 0.00 0.00 21 990.0
20260503223004 73 254 19.0 31.0 0.00 0.00 0.00 20 990.2
20260503222503 74 270 23.0 31.0 0.00 0.00 0.00 22 990.2
20260503222004 74 255 20.0 31.0 0.00 0.00 0.00 23 990.3
20260503221502 73 265 21.0 31.0 0.00 0.00 0.00 24 990.5
20260503221001 73 250 20.0 29.0 0.00 0.00 0.00 24 990.4
20260503220502 73 260 22.0 29.0 0.00 0.00 0.00 22 990.6
20260503220000 73 360 20.0 30.0 0.00 0.00 0.00 25 990.4
20260503215500 73 257 22.0 35.0 0.00 0.00 0.00 27 990.5
20260503215201 74 251 24.0 36.0 0.00 0.00 0.00 24 990.7
20260503214559 74 274 27.0 36.0 0.00 0.00 0.00 25 990.7
20260503214059 74 260 23.0 32.0 0.00 0.00 0.00 25 990.8
20260503213133 74 266 25.0 33.0 0.00 0.00 0.00 23 991.0
20260503212601 74 268 27.0 33.0 0.00 0.00 0.00 24 991.0
20260503212100 74 263 24.0 32.0 0.00 0.00 0.00 23 991.3
20260503211620 73 271 23.0 31.0 0.00 0.00 0.00 26 991.3
20260503211054 73 258 20.0 31.0 0.00 0.00 0.00 27 991.4
20260503210555 74 246 22.0 31.0 0.00 0.00 0.00 25 991.5
20260503210054 74 223 22.0 32.0 0.00 0.00 0.00 27 991.5
20260503205553 74 259 23.0 32.0 0.00 0.00 0.00 27 991.5
20260503205052 73 242 24.0 34.0 0.00 0.00 0.00 28 991.6
20260503204603 74 230 23.0 34.0 0.00 0.00 0.00 28 991.6
20260503204051 75 254 24.0 34.0 0.00 0.00 0.00 26 991.6
20260503203049 75 259 22.0 33.0 0.00 0.00 0.00 27 992.0
20260503202547 75 240 23.0 35.0 0.00 0.00 0.00 29 992.1
20260503202051 75 236 23.0 35.0 0.00 0.00 0.00 28 992.3
20260503201545 74 231 23.0 32.0 0.00 0.00 0.00 27 992.4
20260503201045 74 238 20.0 33.0 0.00 0.00 0.00 27 992.6
20260503200545 74 232 27.0 33.0 0.00 0.00 0.00 29 992.5
20260503200045 73 238 22.0 29.0 0.00 0.00 0.00 29 992.8
20260503195544 73 236 19.0 33.0 0.00 0.00 0.00 30 992.9
20260503195043 74 244 25.0 33.0 0.00 0.00 0.00 28 992.9
20260503194543 74 243 21.0 31.0 0.00 0.00 0.00 27 993.1
20260503194042 73 239 20.0 31.0 0.00 0.00 0.00 29 993.2
20260503193042 73 360 20.0 32.0 0.00 0.00 0.00 30 993.4
20260503192541 73 257 22.0 34.0 0.00 0.00 0.00 30 993.6
20260503192039 73 240 24.0 34.0 0.00 0.00 0.00 28 993.8
20260503191555 73 252 21.0 32.0 0.00 0.00 0.00 29 993.9
20260503191038 74 238 24.0 32.0 0.00 0.00 0.00 27 994.0
20260503190537 73 240 20.0 30.0 0.00 0.00 0.00 27 994.0
20260503190038 72 244 21.0 36.0 0.00 0.00 0.00 29 994.2
20260503185537 72 247 20.0 31.0 0.00 0.00 0.00 29 994.3
20260503185037 72 245 23.0 31.0 0.00 0.00 0.00 30 994.8
20260503184536 72 246 21.0 27.0 0.00 0.00 0.00 29 994.6